Location: Maiden
(35.5760°N, 81.2120°W)
Time: 07:35:04
(UTC-04:00)

Courier 1B - All Passes

Search period start: 10 August 2020 00:00
Search period end: 20 August 2020 00:00
Orbit: 962 x 1209 km, 28.3° (Epoch: 09 August)

Date Brightness Start Highest point End Pass type
(mag) Time Alt. Az. Time Alt. Az. Time Alt. Az.
10 Aug - 00:56:14 10° WSW 01:01:37 26° SSW 01:06:52 10° SE visible
10 Aug - 18:21:43 10° SSW 18:27:14 22° SSE 18:32:32 10° ESE daylight
10 Aug - 20:14:01 10° SW 20:20:49 40° S 20:27:13 10° ESE daylight
10 Aug - 22:07:47 10° WSW 22:14:32 47° S 22:20:53 10° ESE visible
11 Aug - 00:02:09 10° WSW 00:08:03 32° SSW 00:13:44 10° SE visible
11 Aug - 01:58:30 10° SW 02:01:12 13° SSW 02:03:53 10° S night (unlit)
11 Aug - 17:28:47 10° SSW 17:33:32 18° SSE 17:38:09 10° ESE daylight
11 Aug - 19:20:20 10° SW 19:27:04 36° SSE 19:33:27 10° ESE daylight
11 Aug - 21:13:53 10° WSW 21:20:49 47° S 21:27:19 10° ESE visible
11 Aug - 23:08:07 10° WSW 23:14:26 37° SSW 23:20:27 10° SE visible
12 Aug - 01:03:30 10° WSW 01:07:42 17° SSW 01:11:49 10° SSE night (unlit)
12 Aug - 16:36:26 10° S 16:39:50 13° SSE 16:43:11 10° SE daylight
12 Aug - 18:26:45 10° SW 18:33:19 32° SSE 18:39:36 10° ESE daylight
12 Aug - 20:20:00 10° WSW 20:27:03 47° S 20:33:42 10° ESE daylight
12 Aug - 22:14:06 10° WSW 22:20:47 42° S 22:27:04 10° ESE visible
13 Aug - 00:09:00 10° WSW 00:14:09 23° SSW 00:19:08 10° SSE visible
13 Aug - 17:33:20 10° SSW 17:39:34 27° SSE 17:45:36 10° ESE daylight
13 Aug - 19:26:08 10° WSW 19:33:16 45° S 19:40:01 10° ESE daylight
13 Aug - 21:20:07 10° WSW 21:27:04 46° S 21:33:36 10° ESE visible
13 Aug - 23:14:44 10° WSW 23:20:35 28° SSW 23:26:10 10° SE visible
14 Aug - 16:40:09 10° SSW 16:45:49 22° SSE 16:51:22 10° ESE daylight
14 Aug - 18:32:21 10° SW 18:39:28 41° SSE 18:46:15 10° E daylight
14 Aug - 20:26:08 10° WSW 20:33:18 48° S 20:40:02 10° ESE visible
14 Aug - 22:20:34 10° W 22:26:57 34° SSW 22:33:01 10° SE visible
15 Aug - 00:16:41 10° WSW 00:20:10 14° SSW 00:23:34 10° S visible
15 Aug - 15:47:18 10° S 15:52:06 17° SSE 15:56:50 10° ESE daylight
15 Aug - 17:38:40 10° SW 17:45:40 37° SSE 17:52:24 10° E daylight
15 Aug - 19:32:12 10° WSW 19:39:30 49° S 19:46:25 10° ESE daylight
15 Aug - 21:26:28 10° W 21:33:16 40° SSW 21:39:41 10° SE visible
15 Aug - 23:21:48 10° WSW 23:26:37 20° SSW 23:31:17 10° SSE visible
16 Aug - 14:55:10 10° S 14:58:23 13° SSE 15:01:36 10° SE daylight
16 Aug - 16:45:08 10° SW 16:51:52 32° SSE 16:58:26 10° ESE daylight
16 Aug - 18:38:17 10° WSW 18:45:40 48° S 18:52:42 10° ESE daylight
16 Aug - 20:32:25 10° W 20:39:32 45° S 20:46:14 10° ESE visible
16 Aug - 22:27:19 10° WSW 22:33:02 25° SSW 22:38:30 10° SSE visible
17 Aug - 15:51:48 10° SSW 15:58:04 26° SSE 16:04:17 10° ESE daylight
17 Aug - 17:44:27 10° WSW 17:51:49 45° S 17:58:56 10° E daylight
17 Aug - 19:38:24 10° WSW 19:45:43 48° S 19:52:41 10° ESE daylight
17 Aug - 21:33:01 10° WSW 21:39:23 31° SSW 21:45:27 10° SE visible
17 Aug - 23:30:18 10° SW 23:32:34 12° SSW 23:34:48 10° SSW visible
18 Aug - 14:58:44 10° SSW 15:04:19 21° SSE 15:09:55 10° ESE daylight
18 Aug - 16:50:43 10° SW 16:57:58 41° SSE 17:05:04 10° E daylight
18 Aug - 18:44:25 10° WSW 18:51:53 50° S 18:59:02 10° ESE daylight
18 Aug - 20:38:49 10° W 20:45:41 37° SSW 20:52:11 10° SE visible
18 Aug - 22:34:42 10° WSW 22:39:01 17° SSW 22:43:12 10° S visible
19 Aug - 14:06:05 10° S 14:10:36 16° SSE 14:15:09 10° ESE daylight
19 Aug - 15:57:07 10° SW 16:04:08 36° SSE 16:11:05 10° E daylight
19 Aug - 17:50:30 10° WSW 17:58:01 50° S 18:05:18 10° ESE daylight
19 Aug - 19:44:44 10° W 19:51:54 42° SSW 19:58:46 10° SE daylight
19 Aug - 21:39:56 10° WSW 21:45:24 22° SSW 21:50:40 10° SSE visible
